Weather History for Ishigakijima, Japan

Change the Weather History Date:

Friday, September 20, 2013

  Actual Average Record
Temperature  
Mean Temperature 86 °F -  
Max Temperature 89 °F 81 °F 91 °F (2014)
Min Temperature 82 °F 74 °F 73 °F (1997)
Cooling Degree Days 20    
Growing Degree Days 36 (Base 50)    
Moisture  
Dew Point 78 °F    
Average Humidity 77    
Maximum Humidity 84    
Minimum Humidity 69    
Precipitation  
Precipitation 0.00 in - - ()
Sea Level Pressure  
Sea Level Pressure 29.59 in    
Wind  
Wind Speed 21 mph ()    
Max Wind Speed 32 mph    
Max Gust Speed 45 mph    
Visibility 6.1 miles    
Events      
Averages and records for this station are not official NWS values.
T = Trace of Precipitation, MM = Missing Value Source: Averaged Metar Reports

Daily Weather History Graph

Daily Weather History Graph

Search for Another Location

Airport:

Trip Planner

Search our weather history database for the weather conditions in past years. The results will help you decide how hot, cold, wet, or windy it might be!

Date:

Astronomy

Sep. 20, 2013 Rise Set
Actual Time 6:31 AM JST 6:42 PM JST
Civil Twilight 6:08 AM JST 7:04 PM JST
Nautical Twilight 5:42 AM JST 7:31 PM JST
Astronomical Twilight 5:15 AM JST 7:57 PM JST
Moon 7:06 PM JST (9/20) 6:58 AM JST (9/20)
Length of Visible Light 12h 56m
Length of Day
12h 10m
Waxing Gibbous, 99% of the Moon is Illuminated
Sep 20
Waxing Gibbous
Sep 27
Last Quarter
Oct 5
New
Oct 12
First Quarter
Oct 19
Full

Hourly Weather History & Observations

Time (JST) Temp. Heat Index Dew Point Humidity Pressure Visibility Wind Dir Wind Speed Gust Speed Precip Events Conditions
12:00 AM 83 °F - 76 °F 75% 29.70 in - NE 18.4 mph - -  
3:00 AM 83 °F - 78 °F 79% 29.66 in 6 mi NE 18.4 mph - -   Partly Cloudy
6:00 AM 83 °F - 78 °F 79% 29.63 in 6 mi NE 17.3 mph - -   Scattered Clouds
6:00 AM 82.4 °F 89.5 °F 75.2 °F 79% 29.62 in 6.2 mi NE 23.0 mph - N/A   Mostly Cloudy
7:00 AM 82.4 °F 90.9 °F 77.0 °F 84% 29.62 in 6.2 mi NE 21.9 mph - N/A   Mostly Cloudy
8:00 AM 84.2 °F 94.1 °F 77.0 °F 79% 29.62 in 6.2 mi NE 23.0 mph - N/A   Mostly Cloudy
9:00 AM 84.2 °F 94.1 °F 77.0 °F 79% 29.65 in 6.2 mi NE 26.5 mph - N/A   Mostly Cloudy
10:00 AM 87.8 °F 99.7 °F 77.0 °F 70% 29.62 in 6.2 mi NE 27.6 mph - N/A   Scattered Clouds
11:00 AM 86.0 °F 96.9 °F 77.0 °F 74% 29.62 in 6.2 mi NE 28.8 mph - N/A   Mostly Cloudy
12:00 PM 89 °F - 80 °F 69% 29.62 in 6 mi NE 31.1 mph - -   Mostly Cloudy
12:00 PM 86.0 °F 96.9 °F 77.0 °F 74% 29.59 in 6.2 mi NE 31.1 mph - N/A   Mostly Cloudy
1:00 PM 86.0 °F 96.9 °F 77.0 °F 74% 29.59 in 6.2 mi NE 28.8 mph - N/A   Mostly Cloudy
2:00 PM 86.0 °F 99.3 °F 78.8 °F 79% 29.56 in 6.2 mi NE 29.9 mph - N/A   Mostly Cloudy
3:00 PM 86.0 °F 99.3 °F 78.8 °F 79% 29.53 in 6.2 mi NE 26.5 mph - N/A   Partly Cloudy
4:00 PM 86.0 °F 99.3 °F 78.8 °F 79% 29.53 in 6.2 mi NE 27.6 mph - N/A   Scattered Clouds
5:00 PM 84.2 °F 94.1 °F 77.0 °F 79% 29.53 in 6.2 mi NE 29.9 mph - N/A   Mostly Cloudy
6:00 PM 86 °F - 79 °F 75% 29.54 in 6 mi NE 24.2 mph - -   Partly Cloudy
6:00 PM 84.2 °F 94.1 °F 77.0 °F 79% 29.53 in 6.2 mi ENE 29.9 mph - N/A   Scattered Clouds
7:00 PM 84.2 °F 94.1 °F 77.0 °F 79% 29.53 in 6.2 mi ENE 32.2 mph - N/A   Partly Cloudy
8:00 PM 84.2 °F 94.1 °F 77.0 °F 79% 29.56 in 6.2 mi ENE 32.2 mph 44.9 mph N/A   Scattered Clouds
9:00 PM 84 °F - 79 °F 80% 29.57 in 6 mi ENE 24.2 mph - -   Partly Cloudy